Regional Weather Roundup
Issued by NWS Newport/Morehead, NC

Current Version | Previous Version | Text Only | Print | Product List | Glossary Off
Versions: 1 2 3 4 5 6 7 8 9 10 11 12 13 14 15 16 17 18 19 20 21 22 23 24 25 26 27 28 29 30 31 32 33 34 35 36 37 38 39 40 41 42 43 44 45 46 47 48 49 50
000 ASUS42 KMHX 231825 RWRMHX WEATHER ROUNDUP FOR EASTERN NORTH CAROLINA NATIONAL WEATHER SERVICE NEWPORT/MOREHEAD CITY NC 200 PM EDT SAT JUL 23 2016 NOTE: "FAIR" INDICATES FEW OR NO CLOUDS BELOW 12,000 FEET WITH NO SIGNIFICANT WEATHER AND/OR OBSTRUCTIONS TO VISIBILITY NCZ015>017-031-032-045>047-102-103-231900- NORTH COAST CITY SKY/WX TMP DP RH WIND PRES REMARKS EDENTON SUNNY 92 75 57 S6 29.99F HX 104 ELIZABETH CITY SUNNY 91 76 61 S10 29.97F HX 103 KITTY HAWK CLEAR 96 73 47 SW5 29.97F HX 106 MANTEO N/A 90 75 61 SW8 29.99F HX 101 $$ NCZ045>047-081-094-103-104-231900- CENTRAL COAST CITY SKY/WX TMP DP RH WIND PRES REMARKS FRISCO SUNNY 87 76 69 SW10 30.01F $$ NCZ095-097-098-100-101-231900- SOUTHERN COAST CITY SKY/WX TMP DP RH WIND PRES REMARKS BEAUFORT SUNNY 87 76 69 S13 30.01F CEDAR ISLAND NOT AVBL JACKSONVILLE SUNNY 90 71 53 S7 29.99F PINEY ISLAND PTCLDY N/A N/A N/A SW12 30.00 WILMINGTON MOSUNNY 90 76 63 W8 30.00F HX 101 $$ NCZ011>013-027>030-043-044-078>080-089-090>093-098-231900- COASTAL PLAIN CITY SKY/WX TMP DP RH WIND PRES REMARKS AHOSKIE SUNNY 89 76 65 S3 29.98F HX 101 CLINTON MOSUNNY 91 78 65 S6 29.99F HX 105 ELIZABETHTOWN MOSUNNY 91 75 60 SW8 29.99F HX 102 GOLDSBORO MOSUNNY 91 78 65 S8 29.97F HX 106 GREENVILLE MOSUNNY 91 77 62 S7 30.00F HX 105 HAVELOCK SUNNY 90 73 57 SW9 30.01F KENANSVILLE MOSUNNY 90 74 59 CALM 29.99F KINSTON MOSUNNY 91 75 59 S5 30.00F HX 102 NEW BERN MOSUNNY 92 75 57 SW9 30.00F HX 103 RICHLANDS MOSUNNY 91 77 63 S8 30.00F HX 104 ROCKY MOUNT MOSUNNY 92 78 63 S7 29.98F HX 107 WASHINGTON MOSUNNY 90 77 64 SW7 29.99F HX 103 WHITEVILLE SUNNY 90 74 59 S3 30.00F $$ AMZ130-135-150-152-154-156-158-170-250-252-270-ANZ085-086-088-633-658-670-231900- MARINE OBSERVATIONS STATION/POSITION TIME TEMP WIND PRES WAVE SWELL AIR SEA DIR/SP/G HT/PER HT/PER (UTC) (F) (DEG/KT/KT) (MB) (FT/S) (FT/S) CHESAPEAKE LIGHT NOT AVBL 64 E VA BEACH 1750 81 80 220/ 12/ 14 1014.9 3/ 4 2/ 9 DUCK 1800 87 60 210/ 8/ 12 1014.4 2 E DUCK 1711 72 N/A 2/ 9 OREGON INLET 1700 84 83 190/ 16/ 18 1015.8 13E OREGON INLT 1800 82 N/A 2/ 8 2/ 8 HATTERAS CG 1800 87 82 210/ 7/ 12 1016.0 DIAMOND BUOY 1750 84 86 230/ 12/ 14 1016.5 2/ 8 2/ 8 CAPE LOOKOUT 1800 85 220/ 7/ 10 1016.2 BEAUFORT LAB 1800 85 82 200/ 10/ 13 1015.7 30 SE NEW RVR IN 1808 84 85 230/ 8/ 10 1016.5 30 SE NEW RVR IN 1725 85 N/A 2/ 9 27 SE WRIGHTSVLE 1808 84 85 220/ 6/ 8 1016.6 5 SE WRIGHTSVLE 1808 83 84 200/ 12/ 14 1016.8 225 S CAPE HAT 1750 83 87 120/ 4/ 6 1017.4 3/ 8 2/ 8 41 SE CHARLESTON 1750 84 86 80/ 4/ 6 1016.9 3/ 8 2/ 8 $$

USA.gov is the U.S. government's official web portal to all federal, state and local government web resources and services.